QTR58A EGPH-OTHH

Flight info

Callsign QTR58A
Flight time N/A
Altitude 41000
Route TLA6C TLA Y96 HAVEN OTBUN NATEB GODOS SPY MISGO DOJOH DODEN NEGIX DINKU M867 XERUM BAVAX RADIZ EVAXI DARZA GLOMY PETAK DIMIS SALUN N705 MMA P751 DASUM Y234 FYM M872 BDB Y214 ASPUS Y432 LADBO T142 LAEEB LAEB1R
Aircraft B789/H-NONE/C

Departure

Time 2026-04-26 08:20
Airport Edinburgh Airport (EGPH)

Arrival

Time N/A
Airport Hamad International Airport (OTHH)
Time Latitude Longitude Altitude Speed Heading
2026-04-26 07:58 55.94926 -3.36434 112 ft 0 kts 148°
2026-04-26 08:07 55.94932 -3.36441 107 ft 3 kts 148°
2026-04-26 08:07 55.94948 -3.36458 107 ft 2 kts 147°
2026-04-26 08:07 55.94950 -3.36460 107 ft 0 kts 143°
2026-04-26 08:08 55.94959 -3.36470 109 ft 3 kts 144°
2026-04-26 08:08 55.94972 -3.36494 107 ft 3 kts 104°
2026-04-26 08:08 55.94973 -3.36526 112 ft 3 kts 66°
2026-04-26 08:08 55.94973 -3.36530 112 ft 0 kts 61°
2026-04-26 08:11 55.94979 -3.36511 108 ft 5 kts 60°
2026-04-26 08:11 55.95000 -3.36455 109 ft 6 kts 48°
2026-04-26 08:11 55.95036 -3.36418 112 ft 7 kts 17°
2026-04-26 08:11 55.95087 -3.36375 109 ft 10 kts 39°
2026-04-26 08:12 55.95141 -3.36260 109 ft 15 kts 57°
2026-04-26 08:12 55.95202 -3.36084 107 ft 19 kts 58°
2026-04-26 08:12 55.95279 -3.35861 107 ft 18 kts 58°
2026-04-26 08:12 55.95317 -3.35741 107 ft 15 kts 66°
2026-04-26 08:13 55.95368 -3.35585 109 ft 10 kts 55°
2026-04-26 08:13 55.95394 -3.35516 110 ft 8 kts 55°
2026-04-26 08:13 55.95420 -3.35451 109 ft 4 kts 52°
2026-04-26 08:13 55.95434 -3.35432 108 ft 6 kts 33°
2026-04-26 08:14 55.95474 -3.35432 108 ft 6 kts 338°
2026-04-26 08:14 55.95477 -3.35435 106 ft 0 kts 337°
2026-04-26 08:17 55.95486 -3.35442 106 ft 7 kts 334°
2026-04-26 08:18 55.95549 -3.35540 107 ft 13 kts 301°
2026-04-26 08:18 55.95544 -3.35610 106 ft 2 kts 234°
2026-04-26 08:19 55.95533 -3.35637 107 ft 21 kts 235°
2026-04-26 08:19 55.95316 -3.36312 105 ft 102 kts 238°
2026-04-26 08:19 55.94822 -3.37737 157 ft 159 kts 237°
2026-04-26 08:19 55.94199 -3.39550 634 ft 186 kts 236°
2026-04-26 08:20 55.93445 -3.41638 1169 ft 223 kts 238°
2026-04-26 08:20 55.92703 -3.44155 2223 ft 239 kts 243°
2026-04-26 08:20 55.91865 -3.47019 2860 ft 271 kts 237°
2026-04-26 08:20 55.91149 -3.48852 4393 ft 244 kts 233°
2026-04-26 08:21 55.90145 -3.51325 5918 ft 254 kts 235°
2026-04-26 08:21 55.88937 -3.53643 7154 ft 258 kts 213°
2026-04-26 08:21 55.87269 -3.54855 8467 ft 265 kts 189°
2026-04-26 08:21 55.85437 -3.54639 9701 ft 275 kts 168°
2026-04-26 08:22 55.83511 -3.53610 10346 ft 305 kts 166°
2026-04-26 08:22 55.81323 -3.52354 10322 ft 353 kts 164°
2026-04-26 08:22 55.78843 -3.50932 10339 ft 394 kts 165°
2026-04-26 08:22 55.76110 -3.49454 10442 ft 427 kts 165°
2026-04-26 08:23 55.73192 -3.47896 10983 ft 445 kts 165°
2026-04-26 08:23 55.70190 -3.46256 11585 ft 460 kts 165°
2026-04-26 08:23 55.67079 -3.44548 12186 ft 472 kts 165°
2026-04-26 08:23 55.63898 -3.42824 12783 ft 483 kts 165°
2026-04-26 08:24 55.60658 -3.41077 13370 ft 491 kts 165°
2026-04-26 08:24 55.57460 -3.38802 13945 ft 502 kts 154°
2026-04-26 08:24 55.54513 -3.35365 14465 ft 512 kts 143°
2026-04-26 08:24 55.51935 -3.30923 14965 ft 522 kts 133°
2026-04-26 08:25 55.49879 -3.25693 15471 ft 530 kts 121°
2026-04-26 08:25 55.48375 -3.19715 15992 ft 537 kts 110°
2026-04-26 08:25 55.47479 -3.13287 16511 ft 541 kts 102°
2026-04-26 08:25 55.46840 -3.06741 17067 ft 543 kts 100°
2026-04-26 08:26 55.46032 -3.00246 17593 ft 543 kts 109°
2026-04-26 08:26 55.44549 -2.94145 18144 ft 541 kts 119°
2026-04-26 08:26 55.42676 -2.88400 18699 ft 541 kts 123°
2026-04-26 08:26 55.40694 -2.82759 19210 ft 541 kts 123°
2026-04-26 08:27 55.38864 -2.77136 19690 ft 510 kts 120°
2026-04-26 08:27 55.37793 -2.73569 19998 ft 486 kts 120°
2026-04-26 08:27 55.36247 -2.68528 20461 ft 456 kts 121°
2026-04-26 08:27 55.34666 -2.63730 20946 ft 454 kts 122°
2026-04-26 08:28 55.33071 -2.58921 21448 ft 459 kts 122°
2026-04-26 08:28 55.30989 -2.52398 22147 ft 464 kts 121°
2026-04-26 08:28 55.29921 -2.49042 22515 ft 467 kts 121°
2026-04-26 08:28 55.28307 -2.44070 23062 ft 471 kts 122°
2026-04-26 08:29 55.26649 -2.39012 23106 ft 486 kts 122°
2026-04-26 08:29 55.24978 -2.33885 23334 ft 491 kts 121°
2026-04-26 08:29 55.23303 -2.28713 23867 ft 487 kts 121°
2026-04-26 08:29 55.21619 -2.23551 24334 ft 490 kts 122°
2026-04-26 08:30 55.19916 -2.18371 24813 ft 492 kts 122°
2026-04-26 08:30 55.18206 -2.13168 25291 ft 493 kts 121°
2026-04-26 08:30 55.16495 -2.07954 25777 ft 494 kts 121°
2026-04-26 08:30 55.14780 -2.02745 26273 ft 495 kts 122°
2026-04-26 08:31 55.13054 -1.97525 26770 ft 495 kts 122°
2026-04-26 08:31 55.11327 -1.92312 27299 ft 496 kts 122°
2026-04-26 08:31 55.09596 -1.87094 27789 ft 496 kts 122°
2026-04-26 08:31 55.07868 -1.81892 28311 ft 496 kts 122°
2026-04-26 08:32 55.06135 -1.76693 28839 ft 495 kts 122°
2026-04-26 08:32 55.04399 -1.71494 29383 ft 495 kts 122°
2026-04-26 08:32 55.02749 -1.66234 29933 ft 494 kts 120°
2026-04-26 08:32 55.01094 -1.60982 30479 ft 493 kts 121°
2026-04-26 08:33 54.99410 -1.55781 30937 ft 492 kts 121°
2026-04-26 08:33 54.97762 -1.50574 31417 ft 491 kts 120°
2026-04-26 08:33 54.96154 -1.45415 31894 ft 490 kts 121°
2026-04-26 08:33 54.94496 -1.40165 32394 ft 488 kts 121°
2026-04-26 08:34 54.92865 -1.35074 32888 ft 487 kts 121°
2026-04-26 08:34 54.91202 -1.29870 33407 ft 485 kts 121°
2026-04-26 08:34 54.89592 -1.24806 33916 ft 484 kts 121°
2026-04-26 08:34 54.87964 -1.19701 34424 ft 482 kts 121°
2026-04-26 08:35 54.86332 -1.14618 34878 ft 480 kts 121°
2026-04-26 08:35 54.84708 -1.09572 35333 ft 478 kts 121°
2026-04-26 08:35 54.83092 -1.04548 35815 ft 475 kts 121°
2026-04-26 08:35 54.81481 -0.99547 36278 ft 473 kts 121°
2026-04-26 08:36 54.79881 -0.94595 36761 ft 469 kts 121°
2026-04-26 08:36 54.78283 -0.89667 37241 ft 466 kts 121°
2026-04-26 08:36 54.76705 -0.84802 37738 ft 462 kts 121°
2026-04-26 08:36 54.75133 -0.79967 38239 ft 457 kts 121°
2026-04-26 08:37 54.73578 -0.75192 38738 ft 453 kts 121°
2026-04-26 08:37 54.72055 -0.70530 39193 ft 447 kts 121°
2026-04-26 08:37 54.70532 -0.65872 39590 ft 442 kts 121°
2026-04-26 08:37 54.69024 -0.61272 40014 ft 436 kts 121°
2026-04-26 08:38 54.67533 -0.56730 40423 ft 430 kts 121°
2026-04-26 08:38 54.66068 -0.52275 40833 ft 423 kts 121°
2026-04-26 08:38 54.64622 -0.47888 41247 ft 416 kts 121°
2026-04-26 08:38 54.63189 -0.43546 41312 ft 419 kts 121°
2026-04-26 08:39 54.60275 -0.34745 41345 ft 426 kts 121°
2026-04-26 08:39 54.57315 -0.25836 41362 ft 435 kts 121°
2026-04-26 08:40 54.54262 -0.16680 41369 ft 445 kts 121°
2026-04-26 08:40 54.51134 -0.07333 41376 ft 455 kts 121°
2026-04-26 08:41 54.47927 0.02209 41369 ft 466 kts 121°
2026-04-26 08:41 54.44642 0.11948 41376 ft 476 kts 121°
2026-04-26 08:42 54.41274 0.21891 41376 ft 486 kts 121°
2026-04-26 08:42 54.37821 0.32045 41375 ft 497 kts 121°
2026-04-26 08:43 54.34303 0.42346 41374 ft 503 kts 121°
2026-04-26 08:43 54.30757 0.52685 41378 ft 503 kts 121°
2026-04-26 08:44 54.27229 0.62928 41372 ft 502 kts 121°
2026-04-26 08:44 54.23685 0.73176 41361 ft 500 kts 121°
2026-04-26 08:45 54.20136 0.83394 41364 ft 500 kts 121°
2026-04-26 08:45 54.16575 0.93605 41370 ft 501 kts 121°
2026-04-26 08:46 54.12995 1.03827 41372 ft 502 kts 121°
2026-04-26 08:46 54.11345 1.08524 41376 ft 502 kts 121°
2026-04-26 08:48 54.09119 1.14855 41372 ft 498 kts 121°
2026-04-26 08:48 54.05542 1.24973 41375 ft 500 kts 121°
2026-04-26 08:49 54.01941 1.35129 41376 ft 502 kts 122°
2026-04-26 08:49 53.98309 1.45327 41365 ft 507 kts 122°
2026-04-26 08:50 53.94621 1.55642 41391 ft 515 kts 122°
2026-04-26 08:50 53.90867 1.66093 41386 ft 520 kts 122°
2026-04-26 08:51 53.85230 1.81709 41386 ft 519 kts 122°
2026-04-26 08:52 53.81450 1.92126 41390 ft 518 kts 122°
2026-04-26 08:52 53.77668 2.02503 41391 ft 517 kts 122°
2026-04-26 08:53 53.76523 2.05637 41371 ft 518 kts 122°
2026-04-26 08:53 53.74645 2.10776 41385 ft 507 kts 122°
2026-04-26 08:53 53.72810 2.15774 41365 ft 495 kts 122°
2026-04-26 08:53 53.71017 2.20647 41362 ft 482 kts 122°
2026-04-26 08:54 53.69268 2.25399 41357 ft 470 kts 122°
2026-04-26 08:54 53.67563 2.30024 41352 ft 458 kts 122°
2026-04-26 08:54 53.65900 2.34524 41352 ft 446 kts 122°
2026-04-26 08:54 53.64280 2.38898 41347 ft 434 kts 123°
2026-04-26 08:55 53.62721 2.43101 41344 ft 422 kts 123°
2026-04-26 08:55 53.61183 2.47241 41341 ft 411 kts 123°
2026-04-26 08:55 53.59677 2.51290 41347 ft 406 kts 123°
2026-04-26 08:56 53.56651 2.59398 41380 ft 413 kts 123°
2026-04-26 08:56 53.53556 2.67669 41385 ft 421 kts 123°
2026-04-26 08:57 53.50423 2.76016 41392 ft 423 kts 123°
2026-04-26 08:57 53.47286 2.84344 41380 ft 418 kts 123°
2026-04-26 08:58 53.44402 2.91973 41366 ft 413 kts 123°
2026-04-26 08:58 53.42562 2.96835 41389 ft 412 kts 123°
2026-04-26 08:59 53.40997 3.00947 41398 ft 413 kts 123°
2026-04-26 09:00 53.39259 3.05531 41407 ft 413 kts 123°
2026-04-26 09:00 53.36153 3.13669 41390 ft 416 kts 123°
2026-04-26 09:01 53.33024 3.21858 41400 ft 418 kts 123°
2026-04-26 09:01 53.29889 3.30027 41392 ft 416 kts 123°
2026-04-26 09:02 53.26781 3.38103 41391 ft 415 kts 124°
2026-04-26 09:02 53.23427 3.45947 41401 ft 410 kts 131°
2026-04-26 09:03 53.19839 3.53442 41375 ft 415 kts 130°
2026-04-26 09:03 53.16207 3.60876 41382 ft 415 kts 130°
2026-04-26 09:04 53.12582 3.68312 41389 ft 413 kts 130°
2026-04-26 09:04 53.08961 3.75714 41384 ft 413 kts 130°
2026-04-26 09:05 53.05285 3.83199 41397 ft 421 kts 130°
2026-04-26 09:05 53.01534 3.90822 41403 ft 430 kts 130°
2026-04-26 09:06 52.97689 3.98607 41388 ft 441 kts 130°
2026-04-26 09:06 52.93777 4.06507 41379 ft 451 kts 130°
2026-04-26 09:07 52.89736 4.14638 41378 ft 462 kts 130°
2026-04-26 09:07 52.85604 4.22927 41384 ft 473 kts 130°
2026-04-26 09:08 52.81366 4.31399 41381 ft 483 kts 130°
2026-04-26 09:08 52.77020 4.40059 41375 ft 495 kts 130°
2026-04-26 09:09 52.72578 4.48879 41368 ft 502 kts 130°
2026-04-26 09:09 52.68100 4.57739 41367 ft 503 kts 130°
2026-04-26 09:10 52.63619 4.66573 41363 ft 502 kts 130°
2026-04-26 09:10 52.59131 4.75389 41361 ft 502 kts 131°
2026-04-26 09:11 52.55398 4.82699 41355 ft 503 kts 131°
2026-04-26 09:11 52.50776 4.91309 41354 ft 502 kts 132°
2026-04-26 09:12 52.46183 4.99945 41347 ft 502 kts 133°
2026-04-26 09:12 52.41520 5.08441 41348 ft 501 kts 132°
2026-04-26 09:13 52.36899 5.16967 41341 ft 499 kts 133°
2026-04-26 09:13 52.32257 5.25430 41340 ft 499 kts 133°
2026-04-26 09:14 52.27620 5.33891 41344 ft 501 kts 133°
2026-04-26 09:14 52.22983 5.42308 41350 ft 502 kts 133°
2026-04-26 09:15 52.18302 5.50783 41353 ft 502 kts 133°
2026-04-26 09:15 52.13624 5.59220 41338 ft 501 kts 133°
2026-04-26 09:16 52.08950 5.67623 41337 ft 499 kts 133°
2026-04-26 09:16 52.04279 5.75992 41338 ft 499 kts 133°
2026-04-26 09:17 51.99604 5.84338 41340 ft 500 kts 133°
2026-04-26 09:17 51.94916 5.92682 41346 ft 500 kts 133°
2026-04-26 09:18 51.90254 6.00953 41347 ft 500 kts 133°
2026-04-26 09:18 51.85564 6.09243 41338 ft 499 kts 133°
2026-04-26 09:19 51.80870 6.17513 41338 ft 498 kts 133°
2026-04-26 09:19 51.76175 6.25759 41339 ft 498 kts 133°
2026-04-26 09:20 51.71471 6.33992 41339 ft 499 kts 133°
2026-04-26 09:20 51.66767 6.42200 41343 ft 498 kts 133°
2026-04-26 09:21 51.62058 6.50388 41352 ft 497 kts 133°
2026-04-26 09:21 51.57349 6.58550 41354 ft 499 kts 133°
2026-04-26 09:22 51.52608 6.66740 41359 ft 501 kts 134°
2026-04-26 09:22 51.47848 6.74937 41357 ft 501 kts 134°
2026-04-26 09:23 51.43136 6.83023 41336 ft 498 kts 134°
2026-04-26 09:23 51.38287 6.90930 41339 ft 497 kts 137°
2026-04-26 09:24 51.33335 6.98709 41347 ft 499 kts 136°
2026-04-26 09:24 51.28327 7.06428 41343 ft 501 kts 137°
2026-04-26 09:25 51.23351 7.14127 41346 ft 500 kts 136°
2026-04-26 09:25 51.18353 7.21816 41333 ft 498 kts 137°
2026-04-26 09:26 51.13366 7.29467 41327 ft 497 kts 137°
2026-04-26 09:26 51.08388 7.37082 41304 ft 497 kts 137°
2026-04-26 09:27 51.03404 7.44679 41302 ft 496 kts 137°
2026-04-26 09:27 50.98412 7.52269 41300 ft 497 kts 137°
2026-04-26 09:28 50.93402 7.59858 41306 ft 498 kts 137°
2026-04-26 09:28 50.88416 7.67390 41308 ft 498 kts 137°
2026-04-26 09:29 50.83399 7.74943 41305 ft 498 kts 137°
2026-04-26 09:29 50.78359 7.82462 41305 ft 497 kts 137°
2026-04-26 09:30 50.73320 7.89956 41300 ft 498 kts 137°
2026-04-26 09:30 50.68272 7.97443 41294 ft 497 kts 138°
2026-04-26 09:31 50.63227 8.04897 41293 ft 497 kts 138°
2026-04-26 09:31 50.58494 8.12721 41317 ft 485 kts 129°
2026-04-26 09:31 50.56418 8.16825 41293 ft 473 kts 129°
2026-04-26 09:32 50.54391 8.20832 41294 ft 461 kts 129°
2026-04-26 09:32 50.52413 8.24714 41286 ft 449 kts 129°
2026-04-26 09:32 50.50483 8.28487 41278 ft 437 kts 129°
2026-04-26 09:32 50.48606 8.32164 41265 ft 425 kts 129°
2026-04-26 09:33 50.46783 8.35735 41257 ft 413 kts 129°
2026-04-26 09:33 50.45008 8.39204 41267 ft 402 kts 130°
2026-04-26 09:33 50.43276 8.42577 41278 ft 395 kts 130°
2026-04-26 09:34 50.39810 8.49324 41313 ft 401 kts 130°
2026-04-26 09:34 50.36098 8.55960 41308 ft 407 kts 134°
2026-04-26 09:35 50.32263 8.62565 41300 ft 411 kts 134°
2026-04-26 09:35 50.28341 8.69061 41309 ft 410 kts 135°
2026-04-26 09:36 50.24466 8.75548 41296 ft 410 kts 134°
2026-04-26 09:36 50.20566 8.82037 41290 ft 409 kts 134°
2026-04-26 09:37 50.16668 8.88509 41287 ft 408 kts 134°
2026-04-26 09:37 50.12778 8.94951 41284 ft 408 kts 135°
2026-04-26 09:38 50.08883 9.01384 41274 ft 408 kts 135°
2026-04-26 09:38 50.04987 9.07805 41286 ft 408 kts 135°
2026-04-26 09:39 50.01070 9.14242 41292 ft 410 kts 135°
2026-04-26 09:39 49.97138 9.20689 41279 ft 411 kts 135°
2026-04-26 09:40 49.93203 9.27124 41279 ft 410 kts 135°
2026-04-26 09:40 49.89267 9.33543 41272 ft 410 kts 135°
2026-04-26 09:41 49.85331 9.39947 41270 ft 410 kts 135°
2026-04-26 09:41 49.81396 9.46333 41263 ft 409 kts 135°
2026-04-26 09:42 49.77487 9.52660 41262 ft 409 kts 135°
2026-04-26 09:42 49.73559 9.59003 41261 ft 409 kts 135°
2026-04-26 09:43 49.69620 9.65349 41261 ft 409 kts 135°
2026-04-26 09:43 49.65677 9.71683 41261 ft 409 kts 135°
2026-04-26 09:44 49.61735 9.78002 41260 ft 409 kts 135°
2026-04-26 09:44 49.57782 9.84321 41265 ft 410 kts 135°
2026-04-26 09:45 49.53817 9.90644 41257 ft 410 kts 136°
2026-04-26 09:45 49.49833 9.96981 41261 ft 412 kts 136°
2026-04-26 09:46 49.45835 10.03326 41272 ft 412 kts 136°
2026-04-26 09:46 49.41869 10.09604 41273 ft 412 kts 136°
2026-04-26 09:47 49.37872 10.15914 41264 ft 411 kts 136°
2026-04-26 09:47 49.33889 10.22188 41265 ft 410 kts 136°
2026-04-26 09:48 49.29898 10.28458 41265 ft 410 kts 136°
2026-04-26 09:48 49.25912 10.34706 41271 ft 410 kts 136°
2026-04-26 09:49 49.21543 10.40167 41326 ft 403 kts 153°
2026-04-26 09:49 49.16692 10.44632 41282 ft 409 kts 152°
2026-04-26 09:50 49.11834 10.49041 41290 ft 408 kts 152°
2026-04-26 09:50 49.06966 10.53464 41286 ft 407 kts 152°
2026-04-26 09:51 49.02109 10.57867 41266 ft 405 kts 152°
2026-04-26 09:51 48.97268 10.62241 41270 ft 405 kts 152°
2026-04-26 09:52 48.92394 10.66638 41276 ft 408 kts 152°
2026-04-26 09:52 48.85059 10.73235 41280 ft 409 kts 152°
2026-04-26 09:53 48.81057 10.77056 41263 ft 409 kts 137°
2026-04-26 09:53 48.77167 10.83384 41300 ft 412 kts 134°
2026-04-26 09:54 48.73325 10.89875 41261 ft 413 kts 134°
2026-04-26 09:54 48.69460 10.96324 41271 ft 413 kts 134°
2026-04-26 09:55 48.65605 11.02771 41267 ft 413 kts 134°
2026-04-26 09:55 48.61741 11.09205 41273 ft 413 kts 134°
2026-04-26 09:56 48.57872 11.15635 41265 ft 413 kts 134°
2026-04-26 09:56 48.54019 11.22022 41263 ft 414 kts 134°
2026-04-26 09:57 48.50139 11.28439 41243 ft 414 kts 134°
2026-04-26 09:57 48.46243 11.34865 41245 ft 415 kts 134°
2026-04-26 09:58 48.42338 11.41292 41250 ft 416 kts 134°
2026-04-26 09:58 48.38442 11.47688 41249 ft 414 kts 134°
2026-04-26 09:59 48.34546 11.54066 41246 ft 412 kts 134°
2026-04-26 09:59 48.30665 11.60406 41255 ft 412 kts 134°
2026-04-26 10:00 48.26800 11.66703 41259 ft 413 kts 135°
2026-04-26 10:00 48.22593 11.72555 41256 ft 414 kts 138°
2026-04-26 10:01 48.18378 11.78475 41254 ft 414 kts 140°
2026-04-26 10:01 48.14107 11.84269 41246 ft 414 kts 139°
2026-04-26 10:02 48.09871 11.90101 41242 ft 412 kts 139°
2026-04-26 10:02 48.05656 11.95842 41231 ft 411 kts 140°
2026-04-26 10:03 48.01425 12.01615 41222 ft 412 kts 140°
2026-04-26 10:03 47.97172 12.07393 41225 ft 415 kts 140°
2026-04-26 10:04 47.92894 12.13198 41248 ft 415 kts 140°
2026-04-26 10:04 47.88617 12.18983 41242 ft 415 kts 140°
2026-04-26 10:05 47.84346 12.24749 41213 ft 414 kts 140°
2026-04-26 10:05 47.80102 12.30467 41216 ft 406 kts 140°
2026-04-26 10:06 47.75988 12.35996 41201 ft 392 kts 140°
2026-04-26 10:06 47.71950 12.41407 41214 ft 393 kts 140°
2026-04-26 10:07 47.67882 12.46850 41220 ft 397 kts 140°
2026-04-26 10:07 47.63740 12.52380 41228 ft 398 kts 140°
2026-04-26 10:08 47.59474 12.57470 41227 ft 396 kts 142°
2026-04-26 10:08 47.55207 12.62649 41231 ft 395 kts 144°
2026-04-26 10:09 47.50874 12.67660 41207 ft 394 kts 144°
2026-04-26 10:09 47.46580 12.72721 41211 ft 395 kts 144°
2026-04-26 10:10 47.42266 12.77748 41210 ft 396 kts 144°
2026-04-26 10:10 47.37943 12.82794 41210 ft 397 kts 144°
2026-04-26 10:11 47.33599 12.87847 41207 ft 397 kts 144°
2026-04-26 10:11 47.29274 12.92871 41193 ft 395 kts 144°
2026-04-26 10:12 47.24951 12.97878 41186 ft 394 kts 144°
2026-04-26 10:12 47.20656 13.02842 41189 ft 397 kts 144°
2026-04-26 10:13 47.16307 13.07861 41195 ft 397 kts 144°
2026-04-26 10:13 47.11964 13.12860 41174 ft 397 kts 144°
2026-04-26 10:14 47.07607 13.17864 41183 ft 398 kts 144°
2026-04-26 10:14 47.03247 13.22863 41151 ft 397 kts 144°
2026-04-26 10:15 46.98904 13.27830 41165 ft 397 kts 144°
2026-04-26 10:15 46.94545 13.32805 41161 ft 397 kts 144°
2026-04-26 10:16 46.90194 13.37761 41159 ft 396 kts 144°
2026-04-26 10:16 46.85836 13.42716 41151 ft 396 kts 144°
2026-04-26 10:17 46.81484 13.47650 41142 ft 396 kts 144°
2026-04-26 10:17 46.77160 13.52597 41132 ft 397 kts 139°
2026-04-26 10:18 46.72903 13.57674 41143 ft 396 kts 144°
2026-04-26 10:18 46.68617 13.62767 41141 ft 398 kts 141°
2026-04-26 10:19 46.64336 13.67888 41136 ft 398 kts 143°
2026-04-26 10:19 46.60041 13.72971 41135 ft 397 kts 142°
2026-04-26 10:20 46.56483 13.77203 41129 ft 397 kts 142°
2026-04-26 10:20 46.51481 13.83113 41126 ft 396 kts 142°
2026-04-26 10:21 46.47208 13.88160 41120 ft 396 kts 142°
2026-04-26 10:21 46.42929 13.93199 41127 ft 396 kts 142°
2026-04-26 10:22 46.38647 13.98234 41129 ft 396 kts 142°
2026-04-26 10:22 46.35931 14.01420 41130 ft 396 kts 142°
2026-04-26 10:32 46.35756 14.01626 41126 ft 396 kts 143°
2026-04-26 10:32 46.33654 14.04095 41095 ft 383 kts 142°
2026-04-26 10:32 46.31603 14.06495 41099 ft 377 kts 143°
2026-04-26 10:33 46.27511 14.11273 41123 ft 380 kts 143°
2026-04-26 10:33 46.23364 14.16116 41135 ft 385 kts 142°
2026-04-26 10:34 46.22167 14.17510 41134 ft 387 kts 142°
2026-04-26 10:34 46.20495 14.19464 41142 ft 389 kts 143°
2026-04-26 10:35 46.16230 14.24412 41130 ft 397 kts 142°
2026-04-26 10:35 46.11886 14.29459 41149 ft 405 kts 142°
2026-04-26 10:36 46.11456 14.29957 41141 ft 406 kts 142°
2026-04-26 10:39 46.09024 14.32773 41143 ft 411 kts 142°